Volver al catálogo

METEOR 2-8 DEB

ActivoPO
NORAD 36867·DEBRIS·🇷🇺 Russia

Lanzado Mar 25, 1982 desde Plesetsk Cosmodrome

Loading…

Próximos Pases (próximas 24 horas)

TLE

ActualizadoSource: Space-Track

Época: Sep 14, 2026, 07:24 UTC

1 36867U 82025BE  26257.30864794  .00001896  00000-0  72545-3 0  9990
2 36867  82.5192 109.6947 0034280  49.8279 310.5899 14.29930556283036

Sigue METEOR 2-8 DEB en tiempo real con AllMySat

Download on the App Store